Oakland, MD

6:15 AM EDT on July 22, 2017 (GMT -0400)
Oakland

Weather History for K2G4 - December, 2013

Change the Weather History Date:

Tuesday, December 17, 2013

  Actual Average (KMGW) Record (KMGW)
Temperature  
Mean Temperature 28 °F -  
Max Temperature 32 °F 39 °F 68 °F (1984)
Min Temperature 23 °F 24 °F 2 °F (1951)
Degree Days  
Heating Degree Days 38    
Moisture  
Dew Point 30 °F    
Average Humidity 100    
Maximum Humidity 100    
Minimum Humidity 100    
Precipitation  
Precipitation 0.00 in - - ()
Sea Level Pressure  
Sea Level Pressure 29.88 in    
Wind  
Wind Speed 7 mph (WSW)    
Max Wind Speed 12 mph    
Max Gust Speed 23 mph    
Visibility 4 miles    
Events Fog    
Averages and records for this station are not official NWS values.
T = Trace of Precipitation, MM = Missing Value Source: NWS Daily Summary

Daily Weather History Graph

Daily Weather History Graph

Search for Another Location

Airport or City:

Trip Planner

Search our weather history database for the weather conditions in past years. The results will help you decide how hot, cold, wet, or windy it might be!

Date:

Astronomy

Dec. 17, 2013 Rise Set
Actual Time 7:32 AM EST 4:55 PM EST
Civil Twilight 7:01 AM EST 5:25 PM EST
Nautical Twilight 6:28 AM EST 5:59 PM EST
Astronomical Twilight 5:55 AM EST 6:32 PM EST
Moon 5:33 PM EST (12/17) 7:27 AM EST (12/17)
Length of Visible Light 10h 23m
Length of Day
9h 22m
Full, 100% of the Moon is Illuminated
Dec 17
Full
Dec 25
Last Quarter
Jan 1
New
Jan 7
First Quarter
Jan 15
Full

Hourly Weather History & Observations

Time (EST) Temp. Windchill Dew Point Humidity Pressure Visibility Wind Dir Wind Speed Gust Speed Precip Events Conditions
12:00 AM 28.4 °F 22.2 °F 28.4 °F 100% 29.96 in 2.5 mi South 5.8 mph - N/A   Overcast
1:00 AM 28.4 °F 23.3 °F 28.4 °F 100% 29.93 in 3.0 mi South 4.6 mph - N/A   Overcast
1:20 AM 28.4 °F 22.2 °F 28.4 °F 100% 29.92 in 1.8 mi South 5.8 mph - N/A   Overcast
1:40 AM 28.4 °F 22.2 °F 28.4 °F 100% 29.92 in 3.0 mi South 5.8 mph - N/A   Overcast
2:00 AM 30.2 °F 23.4 °F 30.2 °F 100% 29.92 in 5.0 mi SSW 6.9 mph - N/A   Overcast
2:20 AM 30.2 °F 23.4 °F 30.2 °F 100% 29.92 in 7.0 mi SSW 6.9 mph - N/A   Overcast
2:40 AM 30.2 °F 22.6 °F 30.2 °F 100% 29.92 in 10.0 mi SW 8.1 mph - N/A   Overcast
3:00 AM 32.0 °F 24.8 °F 32.0 °F 100% 29.92 in 10.0 mi WSW 8.1 mph 17.3 mph N/A   Overcast
3:20 AM 32.0 °F 23.6 °F 32.0 °F 100% 29.91 in 10.0 mi SW 10.4 mph 23.0 mph N/A   Overcast
3:40 AM 32.0 °F 24.8 °F 32.0 °F 100% 29.91 in 7.0 mi SW 8.1 mph - N/A   Overcast
4:00 AM 32.0 °F 23.6 °F 32.0 °F 100% 29.90 in 7.0 mi SW 10.4 mph 18.4 mph N/A   Overcast
4:20 AM 32.0 °F 24.8 °F 32.0 °F 100% 29.90 in 5.0 mi SW 8.1 mph - N/A   Overcast
4:40 AM 32.0 °F 24.2 °F 32.0 °F 100% 29.89 in 5.0 mi SW 9.2 mph 18.4 mph N/A   Overcast
5:00 AM 32.0 °F 23.0 °F 32.0 °F 100% 29.89 in 5.0 mi SW 11.5 mph 16.1 mph N/A   Overcast
5:20 AM 32.0 °F 23.0 °F 32.0 °F 100% 29.89 in 7.0 mi WSW 11.5 mph 18.4 mph N/A   Overcast
5:40 AM 32.0 °F 23.6 °F 32.0 °F 100% 29.89 in 7.0 mi WSW 10.4 mph - N/A   Overcast
6:00 AM 32.0 °F 24.8 °F 32.0 °F 100% 29.88 in 3.0 mi WSW 8.1 mph - N/A   Overcast
6:20 AM 32.0 °F 24.8 °F 32.0 °F 100% 29.89 in 1.5 mi WSW 8.1 mph - N/A   Overcast
6:40 AM 32.0 °F 25.6 °F 32.0 °F 100% 29.89 in 1.2 mi SW 6.9 mph 16.1 mph N/A   Overcast
7:00 AM 32.0 °F 24.8 °F 32.0 °F 100% 29.89 in 1.2 mi SW 8.1 mph - N/A   Overcast
7:20 AM 32.0 °F 24.8 °F 32.0 °F 100% 29.89 in 2.0 mi WSW 8.1 mph - N/A   Overcast
7:40 AM 32.0 °F 25.6 °F 32.0 °F 100% 29.89 in 3.0 mi SW 6.9 mph - N/A   Overcast
8:00 AM 32.0 °F 24.2 °F 32.0 °F 100% 29.88 in 4.0 mi SW 9.2 mph - N/A   Overcast
8:20 AM 32.0 °F 24.2 °F 32.0 °F 100% 29.89 in 4.0 mi SW 9.2 mph - N/A   Overcast
8:40 AM 32.0 °F 24.2 °F 32.0 °F 100% 29.89 in 1.2 mi SW 9.2 mph 17.3 mph N/A   Overcast
9:00 AM 32.0 °F 24.8 °F 32.0 °F 100% 29.89 in 1.0 mi SW 8.1 mph - N/A   Overcast
9:20 AM 32.0 °F 25.6 °F 32.0 °F 100% 29.89 in 1.0 mi SW 6.9 mph - N/A   Overcast
9:40 AM 32.0 °F 23.6 °F 32.0 °F 100% 29.89 in 2.5 mi WSW 10.4 mph - N/A   Overcast
10:00 AM 32.0 °F 24.8 °F 32.0 °F 100% 29.89 in 1.8 mi SW 8.1 mph - N/A   Overcast
10:20 AM 32.0 °F 24.8 °F 32.0 °F 100% 29.90 in 0.8 mi WSW 8.1 mph - N/A   Overcast
10:40 AM 32.0 °F 25.6 °F 32.0 °F 100% 29.90 in 0.2 mi West 6.9 mph - N/A Fog Light Freezing Fog
11:00 AM 32.0 °F 23.6 °F 32.0 °F 100% 29.90 in 0.2 mi West 10.4 mph 19.6 mph N/A Fog Light Freezing Fog
11:20 AM 30.2 °F 25.4 °F 30.2 °F 100% 29.90 in 0.8 mi West 4.6 mph - N/A   Mist
11:40 AM 30.2 °F 23.4 °F 30.2 °F 100% 29.90 in 0.5 mi West 6.9 mph - N/A Fog Light Freezing Fog
12:00 PM 30.2 °F 24.3 °F 30.2 °F 100% 29.89 in 0.8 mi West 5.8 mph - N/A   Mostly Cloudy
12:20 PM 30.2 °F 24.3 °F 30.2 °F 100% 29.88 in 0.2 mi West 5.8 mph - N/A Fog Light Freezing Fog
12:40 PM 30.2 °F 21.9 °F 30.2 °F 100% 29.88 in 0.2 mi West 9.2 mph - N/A Fog Light Freezing Fog
1:00 PM 30.2 °F 21.3 °F 30.2 °F 100% 29.86 in 0.2 mi West 10.4 mph - N/A Fog Light Freezing Fog
1:20 PM 30.2 °F 22.6 °F 30.2 °F 100% 29.85 in 0.2 mi WSW 8.1 mph - N/A Fog Light Freezing Fog
1:40 PM 30.2 °F 24.3 °F 30.2 °F 100% 29.85 in 0.2 mi WSW 5.8 mph - N/A Fog Light Freezing Fog
2:00 PM 30.2 °F 22.6 °F 30.2 °F 100% 29.85 in 0.2 mi WSW 8.1 mph - N/A Fog Light Freezing Fog
2:20 PM 30.2 °F 24.3 °F 30.2 °F 100% 29.85 in 0.2 mi WSW 5.8 mph - N/A Fog Light Freezing Fog
2:40 PM 30.2 °F 23.4 °F 30.2 °F 100% 29.85 in 0.2 mi WSW 6.9 mph - N/A Fog Light Freezing Fog
3:00 PM 30.2 °F - 30.2 °F 100% 29.84 in 0.2 mi Calm Calm - N/A Fog Light Freezing Fog
3:20 PM 30.2 °F 25.4 °F 30.2 °F 100% 29.85 in 0.2 mi West 4.6 mph - N/A Fog Light Freezing Fog
3:40 PM 28.4 °F 24.6 °F 28.4 °F 100% 29.85 in 0.2 mi West 3.5 mph - N/A Fog Light Freezing Fog
4:00 PM 28.4 °F 23.3 °F 28.4 °F 100% 29.85 in 0.2 mi West 4.6 mph - N/A Fog Light Freezing Fog
4:20 PM 28.4 °F 24.6 °F 28.4 °F 100% 29.85 in 0.2 mi West 3.5 mph - N/A Fog Light Freezing Fog
4:40 PM 28.4 °F 23.3 °F 28.4 °F 100% 29.85 in 0.2 mi WSW 4.6 mph - N/A Fog Light Freezing Fog
5:00 PM 28.4 °F 23.3 °F 28.4 °F 100% 29.85 in 0.5 mi WSW 4.6 mph - N/A Fog Light Freezing Fog
5:20 PM 28.4 °F 22.2 °F 28.4 °F 100% 29.86 in 0.5 mi WSW 5.8 mph - N/A Fog Light Freezing Fog
5:40 PM 28.4 °F 22.2 °F 28.4 °F 100% 29.86 in 1.0 mi WSW 5.8 mph - N/A   Overcast
6:00 PM 28.4 °F 22.2 °F 28.4 °F 100% 29.87 in 2.0 mi WSW 5.8 mph - N/A   Overcast
6:20 PM 28.4 °F 22.2 °F 28.4 °F 100% 29.87 in 1.8 mi WSW 5.8 mph - N/A   Overcast
6:40 PM 28.4 °F 21.2 °F 28.4 °F 100% 29.87 in 2.5 mi SW 6.9 mph - N/A   Overcast
7:00 PM 28.4 °F 20.4 °F 28.4 °F 100% 29.86 in 5.0 mi WSW 8.1 mph - N/A   Overcast
7:20 PM 28.4 °F 19.7 °F 28.4 °F 100% 29.86 in 5.0 mi WSW 9.2 mph - N/A   Overcast
7:40 PM 28.4 °F 20.4 °F 28.4 °F 100% 29.86 in 5.0 mi WSW 8.1 mph - N/A   Overcast
8:00 PM 28.4 °F 22.2 °F 28.4 °F 100% 29.86 in 7.0 mi West 5.8 mph - N/A   Overcast
8:20 PM 28.4 °F 20.4 °F 28.4 °F 100% 29.86 in 7.0 mi West 8.1 mph - N/A   Overcast
8:40 PM 26.6 °F 17.5 °F 26.6 °F 100% 29.86 in 7.0 mi West 9.2 mph - N/A   Overcast
9:00 PM 26.6 °F 17.5 °F 26.6 °F 100% 29.87 in 10.0 mi West 9.2 mph - N/A   Overcast
9:20 PM 26.6 °F 18.2 °F 26.6 °F 100% 29.87 in 10.0 mi West 8.1 mph 16.1 mph N/A   Overcast
9:40 PM 26.6 °F 17.5 °F 26.6 °F 100% 29.87 in 10.0 mi West 9.2 mph 16.1 mph N/A   Overcast
10:00 PM 24.8 °F 16.1 °F 24.8 °F 100% 29.87 in 7.0 mi West 8.1 mph - N/A   Overcast
10:20 PM 24.8 °F 16.1 °F 24.8 °F 100% 29.88 in 7.0 mi West 8.1 mph - N/A   Mostly Cloudy
10:40 PM 24.8 °F 19.1 °F 24.8 °F 100% 29.89 in 7.0 mi West 4.6 mph - N/A   Mostly Cloudy
11:00 PM 23.0 °F 14.7 °F 23.0 °F 100% 29.90 in 10.0 mi West 6.9 mph - N/A   Scattered Clouds
11:20 PM 24.8 °F 16.1 °F 24.8 °F 100% 29.90 in 7.0 mi West 8.1 mph - N/A   Mostly Cloudy
11:40 PM 23.0 °F 11.7 °F 23.0 °F 100% 29.91 in 7.0 mi West 11.5 mph 16.1 mph N/A   Overcast